Regional Weather Roundup
Issued by NWS

Home | Current Version | Previous Version | Text Only | Print | Product List | Glossary Off
Versions: 1 2 3 4 5 6 7 8 9 10 11 12 13 14 15 16 17 18 19 20 21 22 23 24 25 26 27 28 29 30 31 32 33 34 35 36 37 38 39 40 41 42 43 44 45 46 47 48 49 50

000
ASUS43 KOAX 040410
RWRNE

WEATHER ROUNDUP FOR NEBRASKA
NATIONAL WEATHER SERVICE OMAHA NE
1000 PM CST TUE MAR 03 2015

NOTES: SATELLITE DATA IS BEING USED TO AUGMENT CLOUD COVER ABOVE
       12000 FEET.
       "FAIR" INDICATES FEW OR NO CLOUDS BELOW 12,000 FEET WITH NO
       SIGNIFICANT WEATHER AND/OR OBSTRUCTIONS TO VISIBILITY.

  * THESE STATIONS DO NOT REPORT WEATHER SUCH AS RAIN...SNOW OR FOG.

NEZ001>004-019>022-054>056-040500-
NEBRASKA PANHANDLE

CITY           SKY/WX    TMP DP  RH WIND       PRES   REMARKS
SCOTTSBLUFF    CLOUDY    17   9  70 NW8       30.02R WCI   7
ALLIANCE       CLOUDY    15   9  76 N10       30.00R WCI   2
CHADRON        MOCLDY    11   2  67 NW14      30.05R WCI  -5
KIMBALL        CLOUDY    14  10  85 N7        29.94R WCI   3
SIDNEY         LGT SNOW  14  11  87 N12       30.00R FOG     WCI   0
$$

NEZ057>060-069>072-079>082-040500-
SOUTHWEST NEBRASKA

CITY           SKY/WX    TMP DP  RH WIND       PRES   REMARKS
NORTH PLATTE   FLURRIES  18   9  68 N8        30.09R WCI   8
IMPERIAL         N/A     19  11  70 NE13      30.05R WCI   6
LEXINGTON      LGT SNOW  21  10  63 N12       30.11R WCI   9
MCCOOK         FLURRIES  23   8  52 NE15      30.08R WCI  10
OGALLALA       LGT SNOW  18  14  86 CALM      30.06R
$$

NEZ005>010-023>029-035>040-094-040500-
NORTH CENTRAL NEBRASKA

CITY           SKY/WX    TMP DP  RH WIND       PRES   REMARKS
VALENTINE      CLOUDY    15   5  64 NW8       30.07R WCI   4
AINSWORTH      CLOUDY    15   3  57 NW9       30.05S WCI   4
BROKEN BOW     CLOUDY    19   7  59 NW10      30.09R WCI   7
O`NEILL        CLOUDY    18   6  59 NW10      30.06S WCI   6
ORD            CLOUDY    18   3  52 N7        30.09R WCI   9
THEDFORD       LGT SNOW  17  10  75 N9        30.06R WCI   5
$$

NEZ041-046>049-061>064-073>077-083>087-040500-
SOUTH CENTRAL NEBRASKA

CITY           SKY/WX    TMP DP  RH WIND       PRES   REMARKS
GRAND ISLAND   MOCLDY    19   5  54 N12       30.13R WCI   7
AURORA         CLOUDY    20   5  52 N13       30.11R WCI   7
HASTINGS       CLOUDY    20   4  50 N16       30.08R WCI   6
HEBRON         CLEAR     22   7  50 N10       30.10R WCI  12
HOLDREGE       CLOUDY    22   3  43 N13       30.09R WCI  10
KEARNEY *      CLOUDY    19   3  49 N17       30.10R WCI   4
YORK           CLOUDY    19   7  58 N17       30.11R WCI   4
$$

NEZ011>018-030>034-042>045-040500-
NORTHEAST NEBRASKA

CITY           SKY/WX    TMP DP  RH WIND       PRES   REMARKS
NORFOLK        CLOUDY    18   5  57 NW8       30.09R WCI   8
ALBION         CLOUDY    18   3  52 N5        30.10R WCI  11
BLAIR          CLEAR     19   8  61 N14       30.09R WCI   6
COLUMBUS *     PTCLDY    18   0  45 N8        30.13R WCI   7
FREMONT        PTCLDY    19   7  60 N8        30.12R WCI   9
TEKAMAH        CLEAR     18   6  59 N13       30.12R WCI   5
WAYNE          MOCLDY    13   4  68 NW5       30.11R WCI   5
$$

NEZ050>053-065>068-078-088>093-040500-
SOUTHEAST NEBRASKA

CITY           SKY/WX    TMP DP  RH WIND       PRES   REMARKS
LINCOLN        PTCLDY    19   7  59 N13       30.13R WCI   6
OMAHA EPPLEY   MOCLDY    19   8  62 N13       30.11R WCI   6
BEATRICE       PTCLDY    22   7  54 N15G21    30.08R WCI   8
FALLS CITY     CLOUDY    26  10  50 N13       30.06R WCI  15
NEBRASKA CITY  MOCLDY    21   6  52 N12       30.08R WCI   9
PLATTSMOUTH    PTCLDY    19   7  58 N7        30.09R WCI  10
$$

NEZ044-045-051>053-067-040500-
OMAHA AREA

CITY           SKY/WX    TMP DP  RH WIND       PRES   REMARKS
OMAHA EPPLEY   MOCLDY    19   8  62 N13       30.11R WCI   6
BLAIR          CLEAR     19   8  61 N14       30.09R WCI   6
FREMONT        PTCLDY    19   7  60 N8        30.12R WCI   9
MILLARD        CLEAR     20   7  57 N9        30.11R WCI  10
OFFUTT AFB     CLEAR     19   6  57 N17G24    30.10R WCI   4
PLATTSMOUTH    PTCLDY    19   7  58 N7        30.09R WCI  10
WAHOO          FAIR      19   6  57 N10       30.12R WCI   7
$$



USA.gov is the U.S. government's official web portal to all federal, state and local government web resources and services.